Location: Muenchen
(48.1800°N, 11.5800°E)
Time: 11:37:26
(UTC+02:00)

Sich 1 Rocket - Visible Passes

Search period start: 22 October 2014 00:00
Search period end: 31 October 2014 23:00
Orbit: 617 x 655 km, 82.5° (Epoch: 21 October)

Date Brightness Start Highest point End Pass type
(mag) Time Alt. Az. Time Alt. Az. Time Alt. Az.
22 Oct 4.5 19:10:05 10° NNW 19:14:24 53° W 19:18:39 10° S visible
23 Oct 5.9 19:33:13 10° NNW 19:36:55 27° W 19:40:35 10° SW visible
24 Oct 6.7 06:33:35 10° SE 06:36:47 19° E 06:39:59 10° NE visible
24 Oct 6.9 19:57:00 10° NW 19:59:17 14° W 20:01:35 10° WSW visible
25 Oct 5.5 06:55:06 10° SSE 06:59:14 36° E 07:03:22 10° NNE visible
25 Oct 4.2 18:39:57 10° NNW 18:44:20 63° W 18:48:39 10° S visible
26 Oct 5.7 18:02:59 10° NNW 18:06:52 31° W 18:10:44 10° SSW visible
27 Oct 6.8 05:03:57 10° ESE 05:06:47 17° E 05:09:35 10° NE visible
27 Oct 6.8 18:26:31 10° NW 18:29:17 17° W 18:32:01 10° WSW visible
28 Oct 5.7 05:25:14 10° SSE 05:29:11 31° E 05:33:08 10° NNE visible
29 Oct 4.2 05:47:18 10° S 05:51:44 61° E 05:56:09 10° NNE visible
29 Oct 5.4 17:32:45 10° NNW 17:36:48 37° W 17:40:49 10° SSW visible
30 Oct 6.9 04:34:26 10° ESE 04:36:46 14° E 04:39:05 10° NE visible
30 Oct 3.6 06:09:56 10° SSW 06:14:25 67° W 06:18:53 10° N visible
30 Oct 6.6 17:56:07 10° NW 17:59:14 19° W 18:02:21 10° SW visible
31 Oct 5.9 04:55:24 10° SE 04:59:08 26° E 05:02:52 10° NNE visible
